Theta_e
330 329 329 329 329 328 328 328 328 328 328 328 328 329 329 329 329 329 329 329 328 328 328 328 329 329 329 329 329 329 329 328 328 328 327 327 326 326 326 325 325 324
330 330 330 329 329 329 329 328 328 328 328 328 328 328 328 329 329 329 329 329 329 329 328 328 328 328 328 329 329 329 329 328 328 328 327 327 327 326 326 326 325 325
330 330 330 330 330 330 329 329 329 329 328 328 328 328 328 328 328 329 329 329 329 329 328 328 328 328 328 328 328 329 328 328 328 328 328 327 327 326 326 326 325 325
330 330 330 330 330 330 330 330 329 329 329 328 328 328 328 328 328 328 328 328 328 328 328 328 328 327 327 327 327 328 328 328 328 328 328 327 327 326 326 326 325 325
327 328 329 329 330 330 330 330 329 329 329 329 329 328 328 328 328 328 328 328 328 328 328 328 327 327 326 326 326 327 328 328 328 328 328 327 327 326 326 325 325 324
321 323 325 326 327 328 328 328 328 328 328 328 328 328 328 328 328 328 328 328 328 328 328 328 327 327 326 326 326 327 327 327 327 327 327 327 327 326 326 325 325 324
317 318 320 322 323 325 326 326 327 327 327 328 327 327 327 327 327 328 328 328 328 328 328 328 327 327 326 326 326 327 327 327 327 327 327 326 326 325 325 325 325 324
312 314 316 317 319 321 322 323 324 325 325 326 326 326 326 326 326 327 327 328 327 327 328 327 327 326 326 326 326 326 326 326 327 326 325 325 324 324 324 324 323 323
311 312 313 315 317 318 320 320 321 322 323 324 324 325 325 325 326 326 327 327 327 327 327 327 327 327 326 326 326 326 326 326 326 326 325 325 324 323 323 323 322 322
311 311 312 314 316 317 318 319 320 321 321 321 322 323 324 325 326 326 327 327 327 327 327 327 327 327 326 325 325 325 325 325 325 325 325 324 324 323 323 323 322 320
311 311 311 312 313 314 315 317 318 319 320 320 321 322 323 324 325 326 327 327 327 326 326 326 326 326 327 326 325 325 325 325 325 324 324 323 323 323 323 323 322 321
311 311 311 311 312 313 313 314 315 315 316 317 318 319 320 321 322 323 324 324 324 324 324 325 325 325 326 325 324 325 325 324 324 323 323 322 323 323 323 323 322 321
310 310 310 310 311 311 311 311 311 311 312 313 315 316 317 318 318 319 319 320 320 320 321 322 322 323 323 323 324 324 324 323 322 322 322 321 321 320 321 321 321 320
307 307 308 308 307 307 307 307 306 307 309 312 313 314 315 316 317 318 319 319 319 320 321 322 322 322 323 324 324 323 323 322 321 321 321 320 319 318 318 319 319 319
304 304 304 305 304 304 304 304 304 306 307 309 311 312 314 314 316 317 317 318 319 320 321 321 321 322 322 323 323 322 321 321 320 320 319 319 318 318 317 316 316 317
302 301 301 302 303 302 303 304 305 306 307 307 308 310 312 313 315 316 317 317 318 319 319 319 319 320 320 321 320 320 320 319 319 319 318 317 317 316 314 312 313 315
301 300 300 301 301 302 303 304 306 307 308 308 308 310 311 312 314 315 316 316 316 316 317 317 318 318 318 318 318 318 318 318 318 318 317 316 315 314 313 311 311 313
301 300 300 300 301 302 304 306 307 308 309 310 310 311 312 313 314 314 315 315 314 314 315 315 316 316 316 316 316 316 316 316 316 316 316 314 313 313 312 311 312 312
301 301 302 301 302 303 305 306 307 308 310 311 311 312 312 313 314 313 313 312 312 312 313 313 314 314 314 314 314 314 314 314 314 314 314 313 312 311 310 311 311 311
301 302 302 302 302 303 305 306 307 308 310 311 311 311 312 312 312 313 312 311 310 310 310 311 311 311 311 311 311 312 312 312 312 312 312 312 311 310 309 309 311 311
301 302 303 303 303 303 304 306 308 309 309 309 309 310 310 310 311 311 311 310 309 308 308 309 310 309 309 309 309 310 310 310 310 310 310 310 309 308 308 309 311 312
302 302 303 304 304 304 304 306 307 308 308 308 308 308 308 308 308 308 308 308 307 307 307 308 308 307 307 307 307 307 307 307 308 308 308 308 307 307 307 308 309 309
301 302 303 304 305 305 304 305 306 306 306 306 307 307 306 306 306 306 306 305 305 305 305 306 306 305 305 306 306 305 305 305 305 306 306 305 305 304 305 305 305 306
300 302 303 303 304 304 304 304 305 306 306 305 305 305 305 305 305 304 304 304 304 303 303 303 303 303 303 304 304 304 303 303 303 304 303 303 302 302 303 303 303 303
299 301 302 303 303 303 303 303 304 304 304 304 304 303 303 303 303 303 303 302 302 302 302 301 301 301 301 302 303 302 302 302 302 302 302 302 303 303 303 302 301 301
299 300 301 301 302 302 302 302 302 302 302 302 301 302 301 301 301 301 301 301 300 300 300 300 301 301 301 301 301 301 300 301 301 301 302 302 302 302 301 301 300 299
Wind_Speed
39 39 39 39 39 40 39 38 37 36 37 37 38 39 39 39 38 37 37 39 40 41 41 41 40 40 41 41 42 42 40 39 39 40 40 40 41 40 39 39 38 36
39 39 38 38 38 38 38 37 36 35 37 38 38 39 39 38 37 36 37 37 38 40 40 40 40 40 41 41 41 42 42 41 39 38 39 40 40 40 40 39 39 37
36 36 36 36 37 37 36 36 36 37 38 38 38 39 39 38 38 37 38 38 39 40 40 40 40 41 42 41 40 40 42 42 41 39 38 40 40 40 40 39 39 39
33 33 34 35 36 36 36 35 36 37 38 38 38 38 37 37 37 37 38 39 39 39 39 39 40 41 42 41 39 38 38 41 42 41 39 39 40 40 40 39 39 39
31 33 34 35 36 36 36 36 36 36 36 36 37 36 35 35 36 36 37 37 38 38 38 38 39 40 40 39 39 39 38 38 39 40 41 41 40 40 40 39 38 38
31 32 33 33 34 34 34 35 35 35 35 35 35 34 34 34 34 34 35 35 36 37 37 37 38 38 37 36 37 39 40 40 38 38 41 42 41 41 41 39 39 38
30 30 29 29 29 30 31 31 31 31 32 32 32 32 32 32 32 32 32 33 34 35 37 37 37 36 35 35 36 37 39 40 40 39 40 41 41 40 40 39 39 38
26 26 26 27 27 28 29 29 29 28 27 27 28 29 29 30 31 31 31 32 33 34 35 35 35 34 33 34 35 37 38 39 39 38 37 36 36 37 38 38 37 37
22 23 23 24 25 26 27 27 27 27 26 26 25 25 25 27 28 29 30 31 33 34 34 35 35 34 33 33 34 36 37 38 39 39 38 37 35 34 35 35 34 35
19 20 21 22 23 23 24 24 25 25 25 25 24 24 23 24 25 27 28 30 31 33 34 34 34 33 33 34 34 35 36 37 38 39 41 41 39 37 36 35 34 35
17 18 19 20 20 21 22 23 23 23 23 23 23 22 22 21 22 22 24 27 29 31 32 32 32 33 32 30 31 34 37 38 38 38 39 40 41 40 39 38 38 38
17 17 17 17 18 19 20 21 22 23 23 23 23 23 23 22 22 22 23 25 27 28 29 29 30 30 30 29 31 35 37 38 38 39 39 40 40 41 42 42 42 41
16 16 16 16 17 18 19 20 20 19 18 18 19 20 21 21 22 23 24 25 27 29 29 28 28 29 30 31 33 35 36 37 38 38 39 40 39 40 42 43 44 43
13 13 14 14 14 15 17 17 17 16 15 15 15 16 17 19 20 21 23 25 27 28 29 30 31 31 32 32 33 34 35 36 37 38 39 40 39 38 39 41 43 43
10 11 10 10 11 11 12 12 12 12 13 14 15 15 16 16 18 19 21 23 25 25 26 28 29 30 31 32 33 34 34 35 37 38 39 40 39 39 39 40 41 42
8 9 9 8 9 9 9 9 9 9 10 11 13 14 15 15 17 18 19 21 22 23 25 26 27 29 30 31 32 32 33 35 36 38 38 38 38 38 38 39 39 39
7 8 8 7 7 7 6 6 7 7 8 9 10 11 13 14 16 17 18 19 20 22 24 25 26 27 28 29 30 30 32 34 35 37 38 38 38 38 38 38 37 36
7 8 8 6 5 5 5 5 5 6 6 8 8 9 10 12 13 15 16 17 19 20 22 23 24 25 26 27 28 28 30 32 34 35 36 37 37 37 38 37 35 34
6 6 6 6 5 4 4 5 4 5 6 7 7 8 9 10 11 13 13 14 16 18 20 21 22 23 23 24 25 26 27 30 32 34 34 35 35 35 36 36 35 34
4 4 4 5 4 3 4 4 4 5 5 6 6 7 8 9 10 11 12 13 14 15 17 18 19 20 21 21 22 23 25 27 29 31 33 33 34 34 35 35 33 32
2 2 3 3 3 4 4 3 4 5 5 6 7 8 8 8 9 11 12 13 14 14 15 16 17 17 18 19 20 20 22 24 26 28 30 30 31 32 33 33 32 31
1 2 2 2 2 3 3 4 4 5 6 7 8 8 9 9 9 10 11 12 13 13 14 16 16 16 16 17 17 17 18 21 24 26 27 29 29 30 31 32 32 31
2 2 1 2 2 2 3 4 5 6 7 7 8 8 9 10 10 10 11 11 12 12 13 14 15 15 15 15 15 14 16 20 23 24 24 25 26 26 27 28 29 30
2 2 1 1 2 3 4 4 5 6 7 7 8 8 8 9 10 10 10 11 11 11 12 12 13 14 13 13 13 13 14 18 20 21 21 21 20 21 22 23 25 27
3 2 1 1 1 3 3 4 4 5 6 7 8 8 8 8 9 10 10 11 11 11 11 11 12 12 11 11 10 11 12 16 18 19 19 19 19 20 21 22 24 25
3 3 2 2 1 2 2 3 4 4 5 6 7 7 8 8 9 10 10 11 11 11 10 11 11 11 11 10 9 8 10 13 16 18 19 20 20 21 21 22 24 24
Wind_Direction
232 233 234 235 236 238 239 239 239 239 240 239 239 240 241 241 240 238 236 236 235 235 235 235 235 236 237 236 235 235 234 234 231 227 223 222 222 223 223 222 222 221
234 235 236 237 239 241 241 242 243 243 244 244 244 245 245 245 243 241 239 237 236 236 236 235 235 236 237 237 237 235 234 234 232 226 223 222 222 222 222 222 222 222
236 237 238 239 241 244 245 245 245 246 247 247 247 247 247 246 246 244 242 240 238 238 237 236 236 237 238 240 239 237 233 232 231 228 224 223 222 222 222 222 223 223
240 240 241 243 244 246 247 247 247 247 247 248 248 249 249 249 249 247 245 243 241 239 237 236 237 239 240 240 240 238 235 232 230 227 225 225 224 224 224 223 223 223
244 244 245 246 247 248 249 249 250 251 250 251 252 252 253 252 252 250 248 245 242 240 238 237 239 240 240 240 239 239 238 236 231 225 223 226 226 225 225 222 222 222
243 245 246 248 250 251 253 253 255 256 256 257 257 257 256 255 254 253 250 247 243 240 238 238 240 240 240 240 240 239 237 237 235 228 223 224 226 225 224 221 220 222
243 246 248 251 253 254 256 257 258 260 260 260 260 259 258 258 257 256 253 250 246 243 241 239 239 239 240 241 240 239 236 234 234 231 226 224 224 222 220 219 220 221
248 251 252 254 256 256 258 260 261 263 264 264 263 262 262 260 260 259 257 253 249 245 242 239 239 239 241 242 240 239 237 232 230 230 229 225 222 220 219 219 219 219
254 256 257 258 260 261 262 263 265 266 266 266 266 266 265 263 263 261 259 254 249 245 243 241 240 241 244 245 244 242 239 234 230 230 231 230 226 224 220 218 218 217
260 261 261 262 263 265 266 266 268 268 268 268 269 269 268 266 264 261 258 254 248 245 243 240 239 241 243 243 244 245 242 238 234 231 230 229 227 225 222 221 221 217
264 264 266 266 267 267 268 268 268 267 266 267 269 270 269 269 267 263 258 254 250 249 246 242 243 243 241 242 248 249 245 242 239 235 231 227 224 224 224 224 222 218
262 263 264 265 267 268 269 269 269 269 267 266 267 269 269 270 270 269 265 260 257 255 252 248 247 243 243 250 255 252 247 243 240 237 233 229 225 224 224 222 220 219
264 264 264 263 264 265 267 269 270 272 274 273 272 270 269 272 274 273 271 272 271 268 263 260 258 256 255 255 253 250 249 246 241 237 234 231 227 224 222 221 220 221
278 277 276 273 272 273 275 276 273 269 268 270 273 272 269 271 274 273 271 272 273 271 269 268 265 262 260 256 254 252 250 246 242 238 234 231 228 226 224 222 220 220
295 298 297 289 283 285 290 294 292 282 270 264 266 270 272 271 272 272 269 269 270 270 269 266 261 258 258 258 258 254 249 245 241 238 235 231 227 225 224 221 218 218
308 312 309 298 288 288 295 303 307 303 291 278 268 267 272 275 276 277 277 276 275 274 273 269 266 264 264 263 261 256 251 246 240 236 234 230 226 224 223 220 216 218
311 311 311 304 294 294 301 304 303 302 299 292 282 273 270 271 274 277 280 281 280 278 276 274 272 271 268 266 262 257 251 246 241 237 233 230 227 226 224 220 216 218
302 315 325 322 309 304 303 300 298 298 294 289 287 282 277 276 279 282 284 284 282 280 278 276 274 274 271 268 263 257 251 246 241 238 234 230 228 225 224 221 217 218
298 317 331 326 318 305 297 297 296 294 296 296 293 291 291 289 290 293 295 292 288 285 283 281 279 278 274 270 265 259 253 247 242 239 236 233 229 226 223 220 217 217
297 313 328 334 334 319 301 300 302 300 305 307 304 301 301 297 297 299 300 299 297 293 290 288 286 284 281 275 270 263 256 250 245 241 238 235 232 227 222 218 218 221
286 305 327 339 342 339 323 310 315 317 316 317 318 319 316 310 307 305 304 304 303 300 296 295 292 289 286 281 276 270 262 254 247 242 239 235 232 227 222 221 225 228
246 280 299 313 329 352 343 327 329 327 323 326 331 333 330 326 322 318 314 311 309 306 302 301 299 295 291 287 282 274 265 254 246 241 238 235 232 227 224 225 229 231
203 246 275 292 308 331 331 331 337 336 340 345 344 342 341 339 335 330 325 322 320 317 312 307 306 303 298 294 287 275 262 251 242 238 235 233 230 228 227 229 232 233
173 205 237 284 315 330 331 335 338 336 342 347 344 344 345 345 344 339 335 334 331 327 322 315 312 310 306 303 295 278 261 248 240 235 234 234 234 236 238 239 238 237
160 166 149 138 8 360 355 354 353 347 345 342 339 342 344 345 348 345 342 342 339 335 331 324 320 318 317 315 307 287 265 250 242 238 237 240 242 244 245 244 242 241
151 153 144 140 113 49 40 25 15 11 5 357 352 351 350 349 350 347 345 344 342 341 338 330 326 325 322 321 316 298 275 259 250 246 246 247 247 246 246 245 243 242